[[{"header":{"parameterUnit":"m.s-1","parameterCategory":1,"la1":30.2991,"la2":30.254,"lo1":-89.0895,"lo2":-89.0444,"dy":0.0017,"dx":0.0017,"nx":28,"ny":28,"refTime":"2025-08-28T21:00:00:Z","depth":0,"parameterNumber":2,"parameterNumberName":"U-component_of_WINDS"},"data":[0,0,0,0,0,0,0,0,0,0,0,0,0,0,0,0,0,0,0,0,0,0,0,0,0,0,0,0,0,0,0,0,0,0,0,0,0,0,0,0,0,0,0,0,0,0,0,0,0,0,0,0,0,0,0,0,0,0,5.8061,5.8063,0,5.8227,5.8229,5.8231,5.8186,5.8182,5.8179,5.8176,5.8339,5.8347,5.8354,0,0,0,0,0,0,0,0,0,0,0,0,0,5.7693,5.77,5.8061,5.8063,5.8065,5.8227,5.8229,5.8231,5.8186,5.8182,5.8178,5.8174,5.8337,5.8346,5.8355,0,0,0,0,0,0,0,0,0,0,0,0,0,5.7856,5.7703,5.806,5.8062,5.8064,5.8227,5.8229,5.8232,5.8187,5.8182,5.8177,5.8173,5.8334,5.8345,5.8356,5.8525,0,0,5.839,5.8395,0,0,0,0,0,0,0,0,5.7846,5.7869,5.806,5.8062,5.8065,5.8181,5.816,5.833,5.8188,5.814,5.8176,5.817,5.829,5.8305,5.8347,5.8533,5.854,5.8391,5.8398,5.8403,5.8406,0,0,0,0,0,0,0,5.7835,5.7862,5.8126,5.8062,5.8065,5.8051,5.8069,5.8192,5.8241,5.8144,5.8141,5.8162,5.829,5.8336,5.835,5.8542,5.8391,5.8401,5.8408,5.8412,5.8868,5.8873,0,0,0,0,0,0,5.7823,5.7853,5.8121,5.8131,5.7941,5.8062,5.8081,5.8148,5.824,5.8249,5.8166,5.8159,5.8319,5.8337,5.8356,5.8555,5.8403,5.8413,5.842,5.8863,5.8869,5.8875,0,0,0,0,0,0,5.7816,5.7848,5.8114,5.7991,5.8024,5.8074,5.8149,5.8154,5.82,5.8256,5.8264,5.8204,5.8316,5.834,5.8482,5.856,5.8418,5.8428,5.8856,5.8865,5.8872,5.8958,0,0,0,0,0,0,5.7805,5.7845,5.7913,5.7993,5.8031,5.8241,5.8154,5.8161,5.822,5.8213,5.8294,5.8303,5.8314,5.8466,5.8493,5.8573,5.8437,5.885,5.886,5.887,5.8949,5.8968,5.8985,0,0,0,0,0,5.7792,5.793,5.7916,5.7949,5.8117,5.8246,5.8267,5.828,5.8227,5.8292,5.8328,5.83,5.8548,5.8481,5.8512,5.8596,5.8845,5.8857,5.8869,5.894,5.8964,5.8985,0,0,0,0,0,0,5.7856,5.7941,5.7927,5.8095,5.8164,5.8238,5.8322,5.8306,5.8389,5.8379,5.8388,5.8407,5.8551,5.8588,5.8512,5.8761,5.8688,5.8707,5.8732,5.8755,5.8773,5.876,5.8446,0,0,0,0,0,5.789,5.7991,5.8058,5.82,5.8236,5.8273,5.833,5.8334,5.8404,5.8433,5.8479,5.8546,5.8638,5.8699,5.8788,5.8954,5.8968,5.9027,5.9045,5.906,5.9075,5.916,5.9185,5.8915,5.8915,5.8915,0,0,5.796,5.8019,5.8082,5.8214,5.8268,5.8368,5.8298,5.8409,5.8482,5.8449,5.8585,5.8621,5.8696,5.885,5.892,5.8885,5.9153,5.9075,5.9087,5.9094,5.9175,5.92,5.9223,5.8923,5.8922,5.8921,0,0,5.8139,5.8196,5.8318,5.8373,5.8456,5.8479,5.8508,5.8585,5.8608,5.8746,5.8721,5.8807,5.8968,5.9021,5.9069,5.9264,5.9239,5.9293,5.9387,5.947,5.9491,5.951,5.9575,5.9598,5.9308,5.9309,5.9309,0,5.8216,5.8369,5.8383,5.8494,5.8551,5.8527,5.8647,5.8699,5.8806,5.8844,5.8804,5.9001,5.9051,5.9214,5.9261,5.9303,5.9332,5.9283,5.9488,5.9506,5.9524,5.9586,5.9611,5.9314,5.9313,5.9313,5.9312,0,5.8456,5.8563,5.8651,5.8755,5.8822,5.8938,5.8964,5.903,5.9026,5.9053,5.919,5.9248,5.9346,5.9385,5.9384,5.9547,5.9522,5.9485,5.9411,5.9555,5.9613,5.9637,5.9322,5.932,5.9318,5.9317,0,0,5.8681,5.8789,5.8821,5.8866,5.8953,5.9034,5.9146,5.9243,5.9297,5.937,5.9461,5.9596,5.9561,5.9615,5.9619,5.9692,5.9836,5.9645,5.9647,5.9675,6.0014,6.0038,6.0066,5.9821,5.9826,5.983,6.0006,0,5.8864,5.9065,5.9078,5.9258,5.9353,5.933,5.9427,5.9488,5.9515,5.9597,5.9625,5.9719,5.9669,5.97,5.9772,5.9804,5.9904,5.9792,5.9901,5.9905,5.988,6.0097,6.0125,6.0288,6.0029,6.0033,6.0036,0,5.9106,5.9187,5.9376,5.9446,5.9486,5.9574,5.9661,5.9741,5.9809,5.9822,5.9882,5.9874,5.9984,5.9909,6.0058,5.9981,6.0026,6.0048,6.0055,6.0063,5.9977,6.0107,6.0341,6.0364,6.0072,6.007,6.0067,0,5.9245,5.9401,5.9533,5.9573,5.9659,5.972,5.9758,5.9821,5.9877,5.9952,5.9988,6.0075,6.0121,6.0187,6.02,6.0145,6.0348,6.0275,6.0358,6.0358,6.04,6.0396,6.064,6.0436,6.0435,6.0435,6.0434,0,5.9446,5.9562,5.9596,5.9677,5.9804,5.9817,5.9941,5.9974,6.003,6.0113,6.0099,6.0177,6.0192,6.0272,6.0284,6.0402,6.0425,6.0435,6.0436,6.0435,6.0433,6.0462,6.045,6.0441,6.044,6.0439,6.0438,0,5.9622,5.9651,5.9793,5.9862,5.9882,5.9972,6.0029,6.0104,6.0129,6.0234,6.026,6.0297,6.039,6.0411,6.0522,6.0529,6.0668,6.066,6.0645,6.0643,6.0724,6.0714,6.0993,6.1027,6.0804,6.0806,6.0808,0,5.9748,5.9836,5.9914,5.997,6.0011,6.0102,6.0158,6.0173,6.0231,6.0313,6.0377,6.0469,6.0542,6.0691,6.0726,6.0809,6.08,6.0891,6.0812,6.0806,6.0795,6.0788,6.0794,6.0905,6.0908,6.091,6.0911,0,5.9965,5.9974,6.0058,6.0145,6.0213,6.0282,6.0348,6.0394,6.0416,6.0482,6.0578,6.0635,6.0747,6.0836,6.0919,6.0954,6.0935,6.0937,6.0959,6.0957,6.0943,6.0946,6.0682,6.0929,6.0928,6.0926,6.0925,6.0925,6.0117,6.0192,6.0258,6.035,6.0401,6.0462,6.0534,6.0567,6.0648,6.0741,6.0744,6.0847,6.0907,6.1016,6.1056,6.1133,6.1104,6.1139,6.1147,6.1154,6.1159,6.0934,6.1149,6.1148,6.1148,6.1148,6.1147,0,6.0329,6.037,6.0455,6.0547,6.0618,6.0597,6.0667,6.0726,6.0818,6.0877,6.0949,6.1056,6.1142,6.1182,6.1265,6.1319,6.1312,6.134,6.1334,6.1341,6.1183,6.1152,6.1344,6.1344,6.1344,6.1344,6.1344,6.1344,6.0448,6.0573,6.0589,6.0736,6.0775,6.0877,6.0919,6.0973,6.1019,6.114,6.1211,6.1238,6.1287,6.1374,6.1449,6.1458,6.1487,6.1519,6.1523,6.1374,6.1353,6.1334,6.1306,6.1526,6.1527,6.1675,6.1676,6.1677]},{"header":{"parameterUnit":"m.s-1","parameterCategory":1,"la1":30.2991,"la2":30.254,"lo1":-89.0895,"lo2":-89.0444,"dy":0.0017,"dx":0.0017,"nx":28,"ny":28,"refTime":"2025-08-28T21:00:00:Z","depth":0,"parameterNumber":3,"parameterNumberName":"V-component_of_WINDS"},"data":[0,0,0,0,0,0,0,0,0,0,0,0,0,0,0,0,0,0,0,0,0,0,0,0,0,0,0,0,0,0,0,0,0,0,0,0,0,0,0,0,0,0,0,0,0,0,0,0,0,0,0,0,0,0,0,0,0,0,1.8576,1.8578,0,1.8802,1.8805,1.8808,1.8849,1.8847,1.8845,1.8843,1.9082,1.909,1.9098,0,0,0,0,0,0,0,0,0,0,0,0,0,1.8184,1.8191,1.8575,1.8578,1.8581,1.8802,1.8805,1.8808,1.8849,1.8847,1.8844,1.8842,1.908,1.9089,1.9099,0,0,0,0,0,0,0,0,0,0,0,0,0,1.8377,1.8193,1.8575,1.8628,1.8635,1.8801,1.8805,1.8809,1.8849,1.8847,1.8844,1.8841,1.9076,1.9088,1.91,1.9232,0,0,1.9137,1.9143,0,0,0,0,0,0,0,0,1.8366,1.8391,1.8617,1.8625,1.8633,1.8794,1.8755,1.8951,1.885,1.8768,1.8843,1.884,1.8989,1.9008,1.9057,1.9243,1.9254,1.9139,1.9146,1.9151,1.9155,0,0,0,0,0,0,0,1.8352,1.8382,1.8666,1.8621,1.863,1.8642,1.8667,1.8792,1.8892,1.8775,1.8779,1.8804,1.8993,1.9045,1.9063,1.9257,1.9138,1.9149,1.9157,1.9161,1.9563,1.9566,0,0,0,0,0,0,1.8329,1.837,1.8658,1.8672,1.8489,1.8652,1.8679,1.8745,1.8891,1.891,1.8807,1.8805,1.9026,1.9049,1.9072,1.9236,1.9151,1.9163,1.917,1.956,1.9564,1.9568,0,0,0,0,0,0,1.832,1.8354,1.8649,1.8522,1.8561,1.8661,1.8736,1.8751,1.8804,1.8914,1.8933,1.8842,1.9025,1.9055,1.9192,1.9245,1.9168,1.9179,1.9556,1.9561,1.9566,1.9565,0,0,0,0,0,0,1.8309,1.8351,1.84,1.8523,1.8567,1.8763,1.8739,1.8758,1.8824,1.8825,1.8952,1.8971,1.9025,1.9173,1.9204,1.926,1.9189,1.9552,1.9558,1.9564,1.9561,1.9569,1.9577,0,0,0,0,0,1.8295,1.8393,1.8403,1.8437,1.8631,1.8766,1.8792,1.885,1.8828,1.888,1.8951,1.8967,1.9234,1.9187,1.9222,1.9283,1.9549,1.9556,1.9564,1.9557,1.9568,1.9576,0,0,0,0,0,0,1.8276,1.841,1.8422,1.8563,1.8652,1.8773,1.884,1.8859,1.8959,1.8956,1.9026,1.9054,1.9188,1.9249,1.9194,1.9418,1.939,1.9405,1.9373,1.9384,1.9392,1.9375,1.9199,0,0,0,0,0,1.8288,1.8384,1.8497,1.861,1.8654,1.8739,1.88,1.8836,1.8933,1.8972,1.9054,1.9149,1.9254,1.9322,1.9426,1.9569,1.9598,1.9629,1.9636,1.9643,1.9655,1.9736,1.9751,1.9592,1.9592,1.9592,0,0,1.8315,1.8399,1.8456,1.8608,1.8682,1.8782,1.8771,1.8877,1.8953,1.899,1.9123,1.9186,1.9297,1.9437,1.9504,1.9493,1.9705,1.9652,1.9656,1.9666,1.9745,1.976,1.9773,1.9598,1.9597,1.9596,0,0,1.8414,1.8487,1.8589,1.8662,1.8773,1.8829,1.8853,1.8971,1.9013,1.9148,1.9178,1.9269,1.9449,1.9527,1.959,1.9718,1.9736,1.975,1.9792,1.987,1.9882,1.9894,1.994,1.9955,1.9761,1.9761,1.9761,0,1.8433,1.8582,1.8639,1.8744,1.881,1.8846,1.895,1.902,1.916,1.9206,1.9191,1.9417,1.9495,1.9654,1.9685,1.9735,1.9766,1.9736,1.9876,1.9888,1.9899,1.9944,1.9961,1.9762,1.9762,1.9762,1.9762,0,1.8601,1.8704,1.8774,1.8905,1.8979,1.9084,1.9158,1.9227,1.9257,1.9315,1.9452,1.9546,1.9668,1.9709,1.9741,1.9873,1.9863,1.9861,1.9834,1.9914,1.9957,1.9975,1.9764,1.9763,1.9763,1.9763,0,0,1.8696,1.8856,1.8881,1.8941,1.9065,1.9147,1.9254,1.9371,1.9429,1.9525,1.9617,1.9767,1.9766,1.9838,1.9878,1.9947,2.0042,1.9937,1.994,1.9953,2.0195,2.0196,2.0214,2.0055,2.0058,2.0061,2.0186,0,1.881,1.8998,1.9052,1.9212,1.9308,1.9343,1.9436,1.9523,1.958,1.9672,1.9736,1.9842,1.9832,1.9875,1.9944,2.0015,2.0092,2.0007,2.0143,2.0147,2.0114,2.0237,2.0239,2.0352,2.0203,2.0206,2.0208,0,1.8969,1.9064,1.9232,1.9344,1.9386,1.9468,1.958,1.9667,1.9768,1.9805,1.9883,1.9918,2.0032,1.9998,2.0157,2.0099,2.0158,2.0201,2.0207,2.0222,2.0182,2.0257,2.039,2.0406,2.0235,2.0233,2.0231,0,1.9021,1.9192,1.9315,1.9365,1.9498,1.9555,1.9614,1.9711,1.9778,1.9877,1.9921,2.0033,2.0094,2.018,2.0245,2.0214,2.0398,2.037,2.0434,2.0432,2.0472,2.0469,2.0616,2.0508,2.0508,2.0508,2.0507,0,1.9143,1.9245,1.934,1.9415,1.9531,1.9593,1.9706,1.9767,1.9853,1.9942,1.998,2.0063,2.0143,2.0237,2.0289,2.0413,2.0441,2.0475,2.0487,2.0472,2.0467,2.0512,2.0506,2.0512,2.0511,2.051,2.051,0,1.9222,1.9289,1.9425,1.9539,1.957,1.9651,1.9749,1.9825,1.9882,1.9995,2.0026,2.0117,2.023,2.0302,2.0447,2.0482,2.0618,2.0628,2.0583,2.059,2.0649,2.0643,2.0832,2.086,2.0732,2.0733,2.0734,0,1.9296,1.9374,1.9496,1.9557,1.9615,1.9714,1.9782,1.9846,1.9915,2.0035,2.0097,2.0212,2.0308,2.0488,2.0568,2.068,2.0693,2.0751,2.071,2.0692,2.0695,2.0689,2.0698,2.0758,2.0759,2.076,2.0761,0,1.9419,1.9448,1.9543,1.965,1.9729,1.9817,1.9905,1.9954,2.0033,2.011,2.0225,2.0298,2.0445,2.056,2.0678,2.0741,2.0765,2.0773,2.0794,2.0779,2.075,2.0767,2.0602,2.0769,2.0768,2.0767,2.0767,2.0767,1.9499,1.957,1.9666,1.9771,1.9843,1.9924,2.0,2.0066,2.0162,2.0285,2.0318,2.0438,2.0538,2.0698,2.0763,2.086,2.0853,2.0883,2.0891,2.0897,2.0898,2.0734,2.0882,2.0882,2.0882,2.0882,2.0882,0,1.9625,1.9688,1.9783,1.9903,1.9986,1.9998,2.0096,2.0165,2.027,2.0359,2.0451,2.0584,2.0695,2.0783,2.0898,2.0958,2.0972,2.0987,2.0983,2.0998,2.0898,2.0868,2.0973,2.0973,2.0973,2.0973,2.0973,2.0973,1.97,1.9821,1.9861,2.0019,2.0083,2.0199,2.0254,2.0329,2.0401,2.0546,2.0637,2.0693,2.0783,2.0904,2.1007,2.1031,2.1071,2.1083,2.1109,2.1015,2.1004,2.0995,2.0968,2.1092,2.1092,2.1201,2.1202,2.1203]}]]